FW6326 Weather Reports


time (UTC)temp
F
wind
direction
speed
knots
gust
knots
rain 1hr
in
rain 24hr
in
rain mn
in
humidity
%
barometer
mb
20260507231552 46 0 0.0 0.9 0.00 1.22 1.22 95 1001.7
20260507230055 46 0 0.0 3.5 0.00 1.22 1.22 95 1002.0
20260507224611 46 232 1.7 6.1 0.00 1.22 1.22 95 1002.1
20260507223059 46 225 1.7 7.0 0.00 1.22 1.22 95 1002.2
20260507221553 46 231 3.5 7.0 0.00 1.22 1.22 95 1002.4
20260507220054 46 227 2.6 10.4 0.00 1.22 1.22 95 1002.3
20260507214603 46 215 3.5 13.9 0.00 1.22 1.22 95 1002.6
20260507213054 46 223 8.7 12.2 0.00 1.22 1.22 95 1002.6
20260507211620 46 227 7.8 13.9 0.00 1.22 1.22 95 1002.5
20260507210056 47 229 9.6 13.9 0.00 1.22 1.22 95 1002.6
20260507204601 47 238 12.2 20.9 0.00 1.22 1.22 95 1002.7
20260507203054 48 228 10.4 16.5 0.01 1.22 1.22 95 1002.9
20260507201610 47 194 7.0 11.3 0.02 1.22 1.22 95 1002.9
20260507194558 47 116 1.7 6.1 0.08 1.22 1.22 94 1001.8
20260507193107 48 138 2.6 11.3 0.11 1.20 1.20 94 1001.9
20260507191558 48 208 6.1 10.4 0.20 1.19 1.19 95 1003.2
20260507190057 48 141 3.5 9.6 0.24 1.17 1.17 94 1003.0
20260507184555 48 170 3.5 7.8 0.31 1.13 1.13 94 1003.7
20260507183100 49 208 3.5 7.0 0.37 1.08 1.08 95 1004.3
20260507181556 48 233 5.2 10.4 0.42 0.99 0.99 95 1004.6
20260507180058 48 227 5.2 10.4 0.71 0.92 0.92 94 1004.5
20260507174556 48 245 4.3 7.8 0.74 0.81 0.81 95 1004.8
20260507173103 48 239 5.2 10.4 0.63 0.70 0.70 94 1005.1
20260507171557 47 213 7.0 14.8 0.49 0.55 0.55 95 1005.6
20260507170056 46 213 11.3 18.2 0.14 0.21 0.21 95 1005.3
20260507164556 46 175 13.9 20.0 0.01 0.07 0.07 95 1004.4
20260507163053 47 152 13.9 23.5 0.00 0.07 0.07 95 1004.4
20260507161601 46 175 13.0 20.9 0.00 0.06 0.06 95 1005.0
20260507160053 47 183 12.2 21.7 0.00 0.06 0.06 95 1005.3
20260507154555 47 170 13.0 20.0 0.00 0.06 0.06 95 1005.8
20260507153100 47 179 13.9 21.7 0.00 0.06 0.06 95 1006.1
20260507151552 47 175 12.2 20.0 0.00 0.05 0.05 95 1006.8
20260507150056 47 175 12.2 15.6 0.00 0.05 0.05 95 1007.2
20260507144555 46 170 10.4 17.4 0.00 0.05 0.05 95 1007.6
20260507143055 46 175 10.4 15.6 0.00 0.05 0.05 95 1008.0
20260507141559 46 175 11.3 20.9 0.00 0.05 0.05 95 1008.2
20260507140109 46 162 10.4 15.6 0.00 0.05 0.05 95 1008.7
20260507134554 46 175 8.7 15.6 0.00 0.05 0.05 95 1008.8
20260507133058 46 150 10.4 14.8 0.00 0.04 0.04 95 1009.1
20260507131559 46 127 8.7 14.8 0.00 0.04 0.04 95 1009.5
20260507130056 46 175 9.6 14.8 0.00 0.04 0.04 95 1009.5
20260507124556 46 170 8.7 14.8 0.00 0.04 0.04 95 1009.7
20260507123059 46 160 8.7 16.5 0.00 0.04 0.04 95 1010.0
20260507121556 47 175 10.4 15.6 0.00 0.04 0.04 95 1010.1
20260507120059 46 170 11.3 19.1 0.00 0.04 0.04 95 1010.0
20260507114603 46 175 10.4 16.5 0.00 0.04 0.04 95 1010.1
20260507113107 46 184 11.3 18.2 0.03 0.04 0.04 94 1010.3
20260507111558 47 179 10.4 20.0 0.04 0.04 0.04 95 1010.6
20260507110101 46 183 13.0 20.9 0.03 0.03 0.03 95 1010.7
20260507104558 46 183 12.2 19.1 0.03 0.03 0.03 94 1010.8
20260507103058 47 161 14.8 23.5 0.00 0.00 0.00 95 1010.9
20260507101606 47 187 15.6 26.1 0.00 0.00 0.00 95 1010.9
20260507100058 46 175 13.9 23.5 0.00 0.00 0.00 95 1010.6
20260507094602 46 185 15.6 27.8 0.00 0.00 0.00 95 1010.8
20260507093053 46 186 13.0 24.3 0.00 0.00 0.00 95 1010.7
20260507091603 47 175 13.0 23.5 0.00 0.00 0.00 95 1010.8
20260507090110 47 154 13.9 23.5 0.00 0.00 0.00 95 1011.1
20260507084557 46 187 13.0 21.7 0.00 0.00 0.00 95 1011.3
20260507083059 46 180 12.2 16.5 0.00 0.00 0.00 95 1011.5
20260507081558 46 175 13.0 20.0 0.00 0.00 0.00 95 1011.5
20260507080056 46 196 11.3 17.4 0.00 0.00 0.00 95 1011.3
20260507074602 46 153 10.4 15.6 0.00 0.00 0.00 95 1011.5
20260507073110 47 189 13.0 16.5 0.00 0.00 0.00 95 1012.2
20260507071601 46 199 10.4 14.8 0.00 0.00 0.00 95 1012.3
20260507070138 45 137 7.8 13.0 0.00 0.00 0.00 94 1012.5
20260507064556 46 175 7.8 11.3 0.00 0.00 0.00 94 1012.9
20260507063101 46 210 7.8 13.9 0.00 0.00 0.00 94 1013.2
20260507061555 45 209 7.8 11.3 0.00 0.00 0.00 94 1013.6
20260507060056 45 187 7.8 12.2 0.00 0.00 0.00 94 1013.8
20260507054557 45 196 6.1 12.2 0.00 0.00 0.00 94 1013.8
20260507053100 45 189 7.0 12.2 0.00 0.00 0.00 94 1013.9
20260507051553 45 175 7.8 12.2 0.00 0.00 0.00 94 1014.3
20260507050057 45 194 8.7 13.0 0.00 0.00 0.00 94 1014.3
20260507044556 45 141 6.1 13.9 0.00 0.00 0.00 94 1014.5
20260507043053 46 203 7.8 13.0 0.00 0.00 0.00 93 1015.2
20260507041553 46 175 5.2 11.3 0.00 0.00 0.00 93 1015.3
20260507040057 46 180 5.2 9.6 0.00 0.00 0.00 93 1015.7
20260507034559 47 182 6.1 9.6 0.00 0.00 0.00 92 1016.0
20260507033054 47 244 5.2 7.8 0.00 0.00 0.00 93 1016.3
20260507031554 47 298 0.0 8.7 0.00 0.00 0.00 93 1016.6
20260507030107 47 225 8.7 15.6 0.00 0.00 0.00 93 1016.9
20260507024600 46 246 7.0 13.9 0.00 0.00 0.00 93 1017.2
20260507023054 46 210 5.2 8.7 0.00 0.00 0.00 94 1017.4
20260507021616 46 222 4.3 9.6 0.00 0.00 0.00 94 1017.7
20260507020107 46 197 4.3 9.6 0.00 0.00 0.00 93 1017.9
20260507014612 45 0 3.5 10.4 0.00 0.00 0.00 93 1018.1
20260507013055 45 183 3.5 7.0 0.00 0.00 0.00 93 1018.3
20260507011559 46 175 6.1 13.9 0.00 0.00 0.00 93 1018.4
20260507010108 46 175 3.5 6.1 0.00 0.00 0.00 93 1018.3
20260507004554 46 186 4.3 9.6 0.00 0.00 0.00 93 1018.4
20260507003056 46 170 9.6 14.8 0.00 0.00 0.00 93 1018.5
20260507001602 46 197 2.6 8.7 0.00 0.00 0.00 93 1018.4
20260507000053 46 206 8.7 12.2 0.00 0.00 0.00 93 1018.4
20260506234558 47 185 7.0 16.5 0.00 0.00 0.00 92 1018.3
20260506233057 49 203 13.0 20.0 0.00 0.00 0.00 92 1018.3